This is the latest recevied weather packets stored in our database for station/object N6DZK. If no packets are shown the sender has not sent any weather packets the latest 10 day(s).
| Time | Temp. | Humidity | Pressure | Rain* | Wind** | Luminosity | Snow |
|---|---|---|---|---|---|---|---|
| 1777451984 | 11.11° C | 82% | 1019.5 hPa | 0 mm | - | 0 W/m² | - |
| 1777451680 | 11.11° C | 82% | 1019.7 hPa | 0 mm | - | 0 W/m² | - |
| 1777451376 | 11.11° C | 84% | 1019.5 hPa | 0 mm | - | 0 W/m² | - |
| 1777451072 | 10.56° C | 86% | 1019.6 hPa | 0 mm | - | 0 W/m² | - |
| 1777450767 | 10.56° C | 87% | 1019.6 hPa | 0 mm | - | 0 W/m² | - |
| 1777450463 | 10° C | 87% | 1019.4 hPa | 0 mm | - | 0 W/m² | - |
| 1777450160 | 10° C | 86% | 1019.4 hPa | 0 mm | - | 0 W/m² | - |
| 1777449856 | 10.56° C | 85% | 1019.7 hPa | 0 mm | - | 0 W/m² | - |
| 1777449554 | 10.56° C | 84% | 1019.6 hPa | 0 mm | - | 0 W/m² | - |
| 1777449249 | 10.56° C | 83% | 1019.6 hPa | 0 mm | - | 0 W/m² | - |
| 1777448944 | 11.11° C | 83% | 1019.7 hPa | 0 mm | - | 0 W/m² | - |
| 1777448641 | 11.11° C | 82% | 1019.6 hPa | 0 mm | - | 0 W/m² | - |
| 1777448338 | 11.11° C | 82% | 1019.6 hPa | 0 mm | - | 0 W/m² | - |
| 1777448034 | 11.67° C | 81% | 1019.7 hPa | 0 mm | - | 0 W/m² | - |
| 1777447730 | 11.67° C | 80% | 1019.6 hPa | 0 mm | - | 0 W/m² | - |
| 1777447426 | 11.67° C | 79% | 1019.6 hPa | 0 mm | - | 0 W/m² | - |
| 1777447123 | 12.22° C | 79% | 1019.5 hPa | 0 mm | - | 0 W/m² | - |
| 1777446822 | 12.22° C | 79% | 1019.5 hPa | 0 mm | - | 0 W/m² | - |
| 1777446517 | 12.22° C | 79% | 1019.3 hPa | 0 mm | - | 0 W/m² | - |
| 1777446214 | 12.22° C | 79% | 1019.6 hPa | 0 mm | - | 0 W/m² | - |
| 1777445911 | 12.22° C | 79% | 1019.5 hPa | 0 mm | - | 0 W/m² | - |
| 1777445607 | 11.67° C | 80% | 1019.5 hPa | 0 mm | - | 0 W/m² | - |
| 1777445304 | 11.67° C | 81% | 1019.4 hPa | 0 mm | - | 0 W/m² | - |
| 1777444999 | 11.67° C | 80% | 1019.5 hPa | 0 mm | - | 0 W/m² | - |
| 1777444695 | 11.67° C | 80% | 1019.6 hPa | 0 mm | - | 0 W/m² | - |
* Rain latest hour (hover to see other rain measurements)
** Current wind speed in m/s (hover to see current wind gust speed)